Terminal Aerodrome Forecast
Issued by NWS Columbia, SC

Home | Current Version | Previous Version | Text Only | Print | Product List | Glossary On
Versions: 1 2 3 4 5 6 7 8 9 10 11 12 13 14 15 16 17 18 19 20 21 22 23 24 25 26 27 28 29 30 31 32 33 34 35 36 37 38 39 40 41 42 43 44 45
746
FTAK31 PAJN 252340
TAFAGS
TAF
PAGS 252340Z 2600/2624 13006KT P6SM VCSH SCT025 BKN060
      TEMPO 2600/2604 4SM -SHRASN BKN025
     FM260600 VRB04KT P6SM VCSH SCT025 OVC050
     FM260900 35004KT P6SM SCT025 BKN080
     FM262100 35007KT P6SM OVC060
      AMD LTD TO CLD VIS AND WIND=

USA.gov is the U.S. government's official web portal to all federal, state and local government web resources and services.